When you browse on this site, cookies collect data to enhance your experience and personalize the content and advertising you see.
Visit our Privacy Policy to learn more. By continuing to use the site, you agree to this use of cookies and data.
  • In Austria
  • List of Countries
  • For 7 days
  • Water Temperature
  • Satellite Maps
  • Weather Map
  • News
  • Weather Widgets
  • user-avatar
    Login

    Hourly Weather Commerce City

    Today, 22 April, Monday

    Time Temperature Precipitation Wind Pressure Humidity
    00:00 +9°C° 0 mm 2 mps 629 mmHg 80%
    01:00 +8°C° 0 mm 2 mps 629 mmHg 83%
    02:00 +8°C° 0 mm 2 mps 629 mmHg 86%
    03:00 +8°C° 0.1 mm 2 mps 629 mmHg 85%
    04:00 +8°C° 0.1 mm 3 mps 630 mmHg 85%
    05:00 +8°C° 0.1 mm 3 mps 630 mmHg 84%
    06:00 +7°C° 0.1 mm 3 mps 630 mmHg 84%
    07:00 +7°C° 0.1 mm 3 mps 631 mmHg 83%
    08:00 +7°C° 0.1 mm 3 mps 631 mmHg 83%
    09:00 +7°C° 0.1 mm 3 mps 631 mmHg 78%
    10:00 +8°C° 0.1 mm 3 mps 631 mmHg 74%
    11:00 +9°C° 0.1 mm 2 mps 631 mmHg 70%
    12:00 +9°C° 0 mm 2 mps 632 mmHg 66%
    13:00 +10°C° 0 mm 2 mps 632 mmHg 62%
    14:00 +12°C° 0 mm 2 mps 632 mmHg 59%
    15:00 +12°C° 0 mm 2 mps 632 mmHg 57%
    16:00 +13°C° 0 mm 2 mps 632 mmHg 55%
    17:00 +13°C° 0 mm 2 mps 632 mmHg 53%
    18:00 +12°C° 0 mm 2 mps 632 mmHg 55%
    19:00 +12°C° 0 mm 2 mps 632 mmHg 58%
    20:00 +11°C° 0 mm 1 mps 632 mmHg 60%
    21:00 +10°C° 0 mm 2 mps 633 mmHg 62%
    22:00 +9°C° 0 mm 2 mps 633 mmHg 63%
    23:00 +9°C° 0 mm 2 mps 633 mmHg 65%

    Tomorrow, 23 April, Tuesday

    Time Temperature Precipitation Wind Pressure Humidity
    00:00 +9°C° 0 mm 2 mps 633 mmHg 66%
    01:00 +8°C° 0 mm 2 mps 632 mmHg 68%
    02:00 +9°C° 0 mm 1 mps 632 mmHg 69%
    03:00 +9°C° 0 mm 1 mps 632 mmHg 71%
    04:00 +7°C° 0 mm 2 mps 631 mmHg 73%
    05:00 +7°C° 0 mm 2 mps 631 mmHg 75%
    06:00 +8°C° 0 mm 2 mps 632 mmHg 70%
    07:00 +9°C° 0 mm 2 mps 632 mmHg 65%
    08:00 +10°C° 0 mm 2 mps 632 mmHg 60%
    09:00 +13°C° 0 mm 1 mps 633 mmHg 54%
    10:00 +14°C° 0 mm 1 mps 633 mmHg 48%
    11:00 +16°C° 0 mm 1 mps 633 mmHg 43%
    12:00 +18°C° 0 mm 1 mps 633 mmHg 39%
    13:00 +18°C° 0 mm 2 mps 633 mmHg 36%
    14:00 +19°C° 0 mm 2 mps 632 mmHg 32%
    15:00 +19°C° 0 mm 2 mps 632 mmHg 33%
    16:00 +19°C° 0 mm 2 mps 632 mmHg 33%
    17:00 +19°C° 0 mm 2 mps 631 mmHg 33%
    18:00 +17°C° 0 mm 2 mps 631 mmHg 38%
    19:00 +15°C° 0 mm 2 mps 631 mmHg 43%
    20:00 +13°C° 0 mm 1 mps 631 mmHg 48%
    21:00 +13°C° 0 mm 2 mps 631 mmHg 50%
    22:00 +12°C° 0 mm 2 mps 631 mmHg 51%
    23:00 +12°C° 0 mm 2 mps 631 mmHg 52%

    Day after tomorrow, 24 April, Wednesday

    Time Temperature Precipitation Wind Pressure Humidity
    00:00 +10°C° 0 mm 2 mps 630 mmHg 54%
    01:00 +10°C° 0 mm 2 mps 630 mmHg 55%
    02:00 +9°C° 0 mm 2 mps 629 mmHg 56%
    03:00 +10°C° 0 mm 1 mps 629 mmHg 58%
    04:00 +9°C° 0 mm 1 mps 629 mmHg 60%
    05:00 +9°C° 0 mm 1 mps 629 mmHg 62%
    06:00 +11°C° 0 mm 1 mps 629 mmHg 55%
    07:00 +14°C° 0 mm 1 mps 630 mmHg 47%
    08:00 +16°C° 0 mm 1 mps 631 mmHg 40%
    09:00 +18°C° 0 mm 1 mps 631 mmHg 35%
    10:00 +19°C° 0 mm 2 mps 631 mmHg 31%
    11:00 +20°C° 0 mm 2 mps 631 mmHg 26%
    12:00 +21°C° 0 mm 2 mps 631 mmHg 25%
    13:00 +23°C° 0 mm 2 mps 631 mmHg 24%
    14:00 +23°C° 0 mm 2 mps 631 mmHg 22%
    15:00 +23°C° 0 mm 2 mps 630 mmHg 23%
    16:00 +23°C° 0 mm 2 mps 630 mmHg 24%
    17:00 +23°C° 0 mm 2 mps 630 mmHg 25%
    18:00 +21°C° 0 mm 2 mps 630 mmHg 30%
    19:00 +19°C° 0 mm 2 mps 630 mmHg 34%
    20:00 +19°C° 0 mm 1 mps 630 mmHg 39%
    21:00 +17°C° 0 mm 2 mps 630 mmHg 40%
    22:00 +16°C° 0 mm 2 mps 630 mmHg 42%
    23:00 +14°C° 0 mm 3 mps 630 mmHg 43%

    25 April, Thursday

    Time Temperature Precipitation Wind Pressure Humidity
    00:00 +14°C° 0 mm 3 mps 630 mmHg 45%
    01:00 +13°C° 0 mm 4 mps 630 mmHg 47%
    02:00 +12°C° 0 mm 4 mps 630 mmHg 49%
    03:00 +11°C° 0 mm 4 mps 630 mmHg 61%
    04:00 +10°C° 0 mm 3 mps 631 mmHg 72%
    05:00 +9°C° 0 mm 3 mps 631 mmHg 84%
    06:00 +10°C° 0 mm 2 mps 631 mmHg 79%
    07:00 +10°C° 0 mm 2 mps 632 mmHg 75%
    08:00 +12°C° 0 mm 1 mps 633 mmHg 70%
    09:00 +14°C° 0 mm 2 mps 633 mmHg 64%
    10:00 +16°C° 0 mm 2 mps 633 mmHg 57%
    11:00 +17°C° 0 mm 2 mps 634 mmHg 50%
    12:00 +19°C° 0 mm 3 mps 633 mmHg 46%
    13:00 +20°C° 0 mm 3 mps 633 mmHg 42%
    14:00 +22°C° 0 mm 4 mps 633 mmHg 37%
    15:00 +22°C° 0 mm 4 mps 633 mmHg 37%
    16:00 +22°C° 0 mm 5 mps 633 mmHg 37%
    17:00 +22°C° 0 mm 5 mps 633 mmHg 36%
    18:00 +20°C° 0 mm 4 mps 633 mmHg 40%
    19:00 +19°C° 0 mm 4 mps 633 mmHg 43%
    20:00 +17°C° 0 mm 3 mps 633 mmHg 47%
    21:00 +17°C° 0 mm 4 mps 633 mmHg 48%
    22:00 +15°C° 0 mm 4 mps 633 mmHg 49%
    23:00 +14°C° 0 mm 4 mps 633 mmHg 50%

    26 April, Friday

    Time Temperature Precipitation Wind Pressure Humidity
    00:00 +14°C° 0 mm 4 mps 632 mmHg 50%
    01:00 +14°C° 0 mm 4 mps 632 mmHg 50%
    02:00 +13°C° 0 mm 4 mps 632 mmHg 50%
    03:00 +13°C° 0 mm 3 mps 631 mmHg 51%
    04:00 +12°C° 0 mm 3 mps 631 mmHg 52%
    05:00 +13°C° 0 mm 2 mps 631 mmHg 53%
    06:00 +15°C° 0 mm 2 mps 632 mmHg 47%
    07:00 +17°C° 0 mm 2 mps 632 mmHg 40%
    08:00 +20°C° 0 mm 1 mps 633 mmHg 34%
    09:00 +23°C° 0 mm 2 mps 633 mmHg 29%
    10:00 +25°C° 0 mm 2 mps 633 mmHg 23%
    11:00 +27°C° 0 mm 2 mps 633 mmHg 18%
    12:00 +27°C° 0 mm 3 mps 633 mmHg 18%
    13:00 +28°C° 0 mm 4 mps 632 mmHg 17%
    14:00 +28°C° 0 mm 5 mps 632 mmHg 17%
    15:00 +28°C° 0 mm 5 mps 632 mmHg 18%
    16:00 +28°C° 0 mm 5 mps 632 mmHg 19%
    17:00 +27°C° 0 mm 4 mps 632 mmHg 20%
    18:00 +25°C° 0 mm 4 mps 631 mmHg 23%
    19:00 +22°C° 0 mm 3 mps 631 mmHg 26%
    20:00 +20°C° 0 mm 2 mps 631 mmHg 29%
    21:00 +19°C° 0 mm 2 mps 630 mmHg 30%
    22:00 +18°C° 0 mm 2 mps 630 mmHg 32%
    23:00 +17°C° 0 mm 2 mps 630 mmHg 34%

    27 April, Saturday

    Time Temperature Precipitation Wind Pressure Humidity
    00:00 +17°C° 0 mm 3 mps 630 mmHg 33%
    01:00 +16°C° 0 mm 3 mps 630 mmHg 33%
    02:00 +16°C° 0 mm 3 mps 629 mmHg 33%
    03:00 +16°C° 0 mm 3 mps 629 mmHg 34%
    04:00 +14°C° 0 mm 3 mps 630 mmHg 34%
    05:00 +14°C° 0 mm 3 mps 630 mmHg 34%
    06:00 +17°C° 0 mm 3 mps 630 mmHg 32%
    07:00 +19°C° 0 mm 3 mps 631 mmHg 30%
    08:00 +21°C° 0 mm 3 mps 632 mmHg 28%
    09:00 +23°C° 0 mm 2 mps 632 mmHg 25%
    10:00 +24°C° 0 mm 1 mps 632 mmHg 23%
    11:00 +26°C° 0 mm 1 mps 632 mmHg 20%
    12:00 +25°C° 0.1 mm 1 mps 632 mmHg 22%
    13:00 +25°C° 0.1 mm 2 mps 631 mmHg 24%
    14:00 +25°C° 0.1 mm 2 mps 631 mmHg 25%
    15:00 +25°C° 0 mm 2 mps 631 mmHg 26%
    16:00 +25°C° 0 mm 2 mps 631 mmHg 26%
    17:00 +25°C° 0 mm 1 mps 631 mmHg 26%
    18:00 +23°C° 0 mm 2 mps 631 mmHg 30%
    19:00 +20°C° 0 mm 2 mps 631 mmHg 34%
    20:00 +19°C° 0 mm 2 mps 631 mmHg 38%
    21:00 +18°C° 0 mm 2 mps 631 mmHg 42%
    22:00 +17°C° 0 mm 3 mps 630 mmHg 45%
    23:00 +16°C° 0 mm 3 mps 630 mmHg 48%
    Show more